Location: Poughquag
(41.6090°N, 73.6820°W)
Time: 05:06:41
(UTC-04:00)

S-56A Canister/Altair - Pass Details

Date: 06 June 2020
Orbit: 633 x 2499 km, 38.9° (Epoch: 06 July)

Event Time Altitude Azimuth Distance (km) Brightness Sun altitude
Exits shadow 02:04:27 11° 119° (ESE) 2,118 9.7 -23.6°
Drops below altitude 10° 02:04:57 10° 114° (ESE) 2,218 9.8 -23.6°
Sets 02:09:01 0° 87° (E) 3,414 11.1 -23.3°
